DateTimeUTC,F1_A11,F1_S11,BsB_S11,BsG_S11,BsR_S11,BbsB_S11,BbsG_S11,BbsR_S11,BaB_A11,BaG_A11,BaR_A11,Tu_S11,T_S11,Uu_S11,U_S11,P_S11,T1_A11
2021-12-22T13:00:00Z,00000200,21000000,,,,,,,0000.10,0000.15,0000.43,20.3,27.5,,00.0,0667.1,31.3
2021-12-22T13:01:00Z,00000200,21000000,,,,,,,-000.13,-000.21,-000.20,20.3,27.6,,00.0,0667.1,31.3
2021-12-22T13:02:00Z,00000200,21000000,,,,,,,-000.64,-000.11,-000.36,20.3,27.6,,00.0,0667.1,31.3
2021-12-22T13:03:00Z,00000200,61000000,,,,,,,0000.23,-000.15,-000.02,20.3,27.6,,00.0,0667.1,31.3
2021-12-22T13:04:00Z,00000200,41000000,0000.46,0000.00,0000.40,0000.68,0000.41,0000.35,0000.11,-000.02,-000.11,20.5,27.5,,00.0,0668.1,31.3
2021-12-22T13:05:00Z,00000200,01000000,-000.01,-000.01,-000.05,0000.09,0000.13,-000.00,0000.20,0000.31,0000.47,20.6,27.4,,00.0,0668.1,31.3
2021-12-22T13:06:00Z,00000200,01000000,0000.08,0000.19,-000.00,-000.05,0000.35,-000.12,-000.07,-000.09,0000.08,20.6,27.4,,00.0,0668.1,31.3
2021-12-22T13:07:00Z,00000200,01000000,-000.38,0000.17,-000.04,0000.19,0000.22,0000.00,0000.27,0000.18,-000.02,20.5,27.4,,00.0,0668.1,31.3
2021-12-22T13:08:00Z,00000200,01000000,0000.08,-000.08,-000.43,0000.09,0000.31,-000.45,0000.12,-000.05,-000.04,20.5,27.3,,00.0,0668.1,31.2
2021-12-22T13:09:00Z,00000200,01000000,-000.46,-000.08,0000.13,0000.35,0000.19,-000.19,-000.50,0000.21,-000.14,20.4,27.3,,00.0,0668.1,31.2
2021-12-22T13:10:00Z,00000200,01000000,0000.61,-000.01,0000.27,-000.80,0000.17,-000.02,0000.32,0000.22,0000.21,20.4,27.2,,00.0,0668.1,31.2
2021-12-22T13:11:00Z,00000200,01000000,-000.50,0000.44,-000.08,0000.42,-000.03,0000.23,-000.20,-000.39,-000.01,20.3,27.2,,00.0,0668.1,31.2
2021-12-22T13:12:00Z,00000200,01000000,-000.50,-000.51,0000.08,0000.05,0000.25,0000.40,0000.24,-000.08,-000.15,20.3,27.2,,00.0,0668.1,31.2
2021-12-22T13:13:00Z,00000200,01000000,-000.02,0000.01,-000.14,0000.19,0000.02,-000.21,0000.08,-000.04,-000.04,20.3,27.2,,00.0,0668.1,31.2
2021-12-22T13:14:00Z,00000200,01000000,0000.19,0000.30,-000.02,-000.33,-000.16,-000.41,-000.11,0000.10,0000.32,20.3,27.2,,00.0,0668.1,31.2
2021-12-22T13:15:00Z,00000200,01000000,-000.61,0000.06,-000.20,0000.82,-000.22,-000.24,0000.23,0000.43,0000.30,20.4,27.2,,00.0,0668.1,31.2
2021-12-22T13:16:00Z,00000200,01000000,-000.02,0000.02,-000.37,0000.42,0000.10,-000.13,0000.10,0000.07,-000.13,20.4,27.2,,00.0,0668.1,31.2
2021-12-22T13:17:00Z,00000200,01000000,-000.28,0000.24,-000.10,-000.18,0000.12,-000.09,-000.04,0000.04,0000.34,20.5,27.2,,00.0,0668.1,31.2
2021-12-22T13:18:00Z,00000200,01000000,0000.41,0000.01,-000.56,-000.20,0000.22,-000.23,0000.47,-000.00,-000.17,20.6,27.2,,00.0,0668.1,31.2
2021-12-22T13:19:00Z,00000200,01000000,-000.08,0000.26,0000.16,-000.39,0000.09,-000.02,-000.23,0000.38,-000.02,20.6,27.3,,00.0,0668.1,31.2
2021-12-22T13:20:00Z,00000200,01000000,-000.48,0000.02,0000.11,-000.53,0000.52,0000.02,0000.14,-000.30,0000.39,20.7,27.3,,00.0,0668.1,31.3
2021-12-22T13:21:00Z,00000200,01000000,0000.15,0000.15,-000.06,0000.18,0000.08,-000.10,0000.00,0000.24,-000.19,20.7,27.3,,00.0,0668.1,31.3
2021-12-22T13:22:00Z,00000200,01000000,-000.86,-000.01,-000.02,-000.76,0000.13,-000.23,0000.28,0000.05,0000.07,20.7,27.3,,00.0,0668.1,31.3
2021-12-22T13:23:00Z,00000200,01000000,-000.69,0000.26,0000.01,0000.17,0000.19,0000.13,0000.22,0000.22,-000.04,20.7,27.3,,00.0,0668.1,31.2
2021-12-22T13:24:00Z,00000200,01000000,-000.62,0000.03,-000.21,-000.14,0000.05,-000.01,-000.27,0000.01,0000.09,20.6,27.3,,00.0,0668.0,31.2
2021-12-22T13:25:00Z,00000200,01000000,-000.27,-000.01,-000.20,0000.10,-000.17,-000.05,0000.05,-000.41,-000.14,20.6,27.2,,00.0,0668.0,31.2
2021-12-22T13:26:00Z,00000200,01000000,-000.17,0000.07,0000.07,0000.25,-000.08,-000.08,0000.33,0000.33,0000.52,20.6,27.2,,00.0,0668.1,31.2
2021-12-22T13:27:00Z,00000200,01000000,-001.15,-000.00,-000.28,-000.38,0000.03,0000.00,-000.20,-000.14,-000.45,20.6,27.2,,00.0,0668.1,31.2
2021-12-22T13:28:00Z,00000200,01000000,-000.09,0000.08,-000.01,0000.28,-000.27,0000.02,0000.11,0000.10,0000.08,20.6,27.2,,00.0,0668.1,31.2
2021-12-22T13:29:00Z,00000200,01000000,0000.07,-000.22,-000.20,0000.11,0000.29,-000.00,-000.00,-000.06,0000.15,20.7,27.3,,00.0,0668.1,31.2
2021-12-22T13:30:00Z,00000200,01000000,-000.48,-000.05,-000.36,-000.06,0000.06,-000.18,-000.12,0000.11,0000.09,20.7,27.3,,00.0,0668.1,31.2
2021-12-22T13:31:00Z,00000200,01000000,-000.57,-000.22,0000.10,-000.48,0000.29,0000.35,0000.08,-000.10,-000.20,20.8,27.3,,00.0,0668.1,31.2
2021-12-22T13:32:00Z,00000200,01000000,0000.45,-000.24,-000.12,0000.12,0000.06,0000.17,0000.07,0000.33,0000.23,20.8,27.3,,00.0,0668.1,31.2
2021-12-22T13:33:00Z,00000200,01000000,-000.11,-000.18,-000.01,-000.18,0000.13,0000.16,0000.07,-000.16,0000.33,20.8,27.3,,00.0,0668.1,31.2
2021-12-22T13:34:00Z,00000200,01000000,-000.21,0000.30,-000.29,-000.60,0000.03,-000.04,0000.00,0000.50,-000.12,20.9,27.3,,00.0,0668.1,31.3
2021-12-22T13:35:00Z,00000200,01000000,-000.14,0000.53,-000.21,-000.39,0000.03,0000.11,0000.24,-000.19,0000.07,20.9,27.4,,00.0,0668.1,31.3
2021-12-22T13:36:00Z,00000200,01000000,-000.34,0000.25,-000.00,0000.40,0000.31,0000.13,-000.08,-000.06,0000.12,21.0,27.4,,00.0,0668.1,31.3
2021-12-22T13:37:00Z,00000200,01000000,-000.03,0000.04,-000.21,0000.29,-000.01,-000.17,-000.35,-000.10,-000.42,21.0,27.4,,00.0,0668.1,31.3
2021-12-22T13:38:00Z,00000200,01000000,-000.60,-000.15,0000.17,0000.11,-000.24,0000.13,0000.36,0000.11,0000.07,21.0,27.4,,00.0,0668.1,31.3
2021-12-22T13:39:00Z,00000200,01000000,-000.34,0000.06,-000.00,0000.36,0000.01,-000.01,0000.00,0000.01,0000.16,20.9,27.4,,00.0,0668.1,31.3
2021-12-22T13:40:00Z,00000200,01000000,0000.54,-000.10,0000.02,-000.22,-000.03,0000.05,-000.09,0000.03,-000.23,20.8,27.4,,00.0,0668.1,31.3
2021-12-22T13:41:00Z,00000200,01000000,-000.07,0000.05,0000.04,-000.11,0000.03,-000.35,0000.27,0000.01,0000.31,20.8,27.3,,00.0,0668.0,31.2
2021-12-22T13:42:00Z,00000200,01000000,-000.41,0000.55,-000.17,0000.38,0000.24,-000.10,0000.34,0000.52,0000.53,20.8,27.3,,00.0,0668.0,31.2
2021-12-22T13:43:00Z,00000200,01000000,-000.05,0000.21,0000.17,0000.20,0000.38,0000.14,-000.03,-000.23,-000.23,20.9,27.4,,00.0,0668.0,31.2
2021-12-22T13:44:00Z,00000200,01000000,0000.19,0000.18,-000.14,-000.27,-000.15,-000.03,0000.18,0000.26,0000.23,20.9,27.4,,00.0,0668.0,31.2
2021-12-22T13:45:00Z,00000200,01000000,-000.15,0000.39,0000.08,0000.25,0000.12,0000.19,0000.04,0000.28,0000.03,21.0,27.4,,00.0,0668.0,31.3
2021-12-22T13:46:00Z,00000200,01000000,0000.26,-000.01,-000.03,0000.29,0000.29,-000.19,-000.16,-000.17,-000.51,21.0,27.4,,00.0,0668.1,31.3
2021-12-22T13:47:00Z,00000200,01000000,0000.24,0000.08,0000.16,-000.32,0000.27,-000.02,-000.01,0000.07,0000.10,21.0,27.4,,00.0,0668.1,31.3
2021-12-22T13:48:00Z,00000200,01000000,-000.28,0000.33,-000.52,-000.09,0000.15,-000.05,-000.40,-000.19,0000.26,21.1,27.5,,00.0,0668.1,31.3
2021-12-22T13:49:00Z,00000200,01000000,-000.09,-000.12,0000.02,0000.54,-000.08,-000.12,0000.34,-000.23,-000.48,21.1,27.5,,00.0,0668.1,31.3
2021-12-22T13:50:00Z,00000200,01000000,-000.60,0000.19,-000.15,0000.14,-000.14,0000.26,-000.03,-000.16,-000.03,21.1,27.5,,00.0,0668.1,31.3
2021-12-22T13:51:00Z,00000200,01000000,-000.46,0000.22,-000.17,0000.77,0000.15,0000.04,-000.45,-000.27,0000.08,21.1,27.5,,00.0,0668.1,31.3
2021-12-22T13:52:00Z,00000200,01000000,-000.09,-000.01,-000.21,0000.12,0000.27,-000.02,0000.33,0000.82,0000.21,21.0,27.5,,00.0,0668.0,31.3
2021-12-22T13:53:00Z,00000200,01000000,-000.01,-000.21,-000.29,-000.31,0000.29,0000.29,0000.24,-000.69,0000.19,20.9,27.4,,00.0,0668.0,31.3
2021-12-22T13:54:00Z,00000200,01000000,-000.32,-000.08,-000.22,0000.32,0000.08,0000.24,-000.32,0000.24,-000.28,20.8,27.4,,00.0,0668.0,31.3
2021-12-22T13:55:00Z,00000200,01000000,-000.57,0000.13,-000.14,-000.08,0000.05,-000.08,-000.17,-000.15,0000.15,20.8,27.4,,00.0,0668.0,31.2
2021-12-22T13:56:00Z,00000200,01000000,0000.10,0000.37,0000.39,0000.18,-000.12,0000.54,0000.42,0000.38,0000.03,20.8,27.3,,00.0,0668.0,31.2
2021-12-22T13:57:00Z,00000200,41000000,,,,,,,0000.97,0000.63,0000.74,20.8,27.4,,00.0,0668.0,31.2
2021-12-22T13:58:00Z,00000200,61000000,,,,,,,-000.81,-000.56,-000.40,20.5,27.5,,00.0,0667.0,31.2
2021-12-22T13:59:00Z,00000200,21000000,,,,,,,0000.17,0000.38,-000.06,20.5,27.6,,00.0,0667.0,31.2
